• In Portugal
  • List of Countries
  • For 7 days
  • Water Temperature
  • Satellite Maps
  • Weather Map
  • Weather Widgets
  • user-avatar
    Login

    Hourly Weather Aksaray

    Today, 23 February, Friday

    Time Temperature Precipitation Wind Pressure Humidity
    00:00 +7°C° 0 mm 2 mps 673 mmHg 60%
    01:00 +7°C° 0 mm 2 mps 673 mmHg 62%
    02:00 +7°C° 0 mm 2 mps 673 mmHg 63%
    03:00 +6°C° 0 mm 2 mps 672 mmHg 65%
    04:00 +7°C° 0 mm 1 mps 672 mmHg 67%
    05:00 +6°C° 0 mm 1 mps 672 mmHg 69%
    06:00 +7°C° 0 mm 1 mps 672 mmHg 66%
    07:00 +8°C° 0 mm 1 mps 673 mmHg 63%
    08:00 +9°C° 0 mm 1 mps 673 mmHg 61%
    09:00 +10°C° 0 mm 1 mps 673 mmHg 55%
    10:00 +11°C° 0 mm 1 mps 673 mmHg 49%
    11:00 +12°C° 0 mm 1 mps 673 mmHg 44%
    12:00 +13°C° 0 mm 1 mps 672 mmHg 41%
    13:00 +13°C° 0 mm 1 mps 672 mmHg 39%
    14:00 +14°C° 0 mm 1 mps 672 mmHg 37%
    15:00 +12°C° 0 mm 0 mps 672 mmHg 38%
    16:00 +12°C° 0 mm 0 mps 671 mmHg 39%
    17:00 +12°C° 0 mm 0 mps 671 mmHg 40%
    18:00 +11°C° 0 mm 0 mps 671 mmHg 43%
    19:00 +11°C° 0 mm 1 mps 671 mmHg 47%
    20:00 +10°C° 0 mm 1 mps 671 mmHg 51%
    21:00 +10°C° 0 mm 1 mps 671 mmHg 52%
    22:00 +9°C° 0 mm 1 mps 671 mmHg 54%
    23:00 +9°C° 0 mm 1 mps 671 mmHg 55%

    Tomorrow, 24 February, Saturday

    Time Temperature Precipitation Wind Pressure Humidity
    00:00 +9°C° 0 mm 1 mps 671 mmHg 57%
    01:00 +8°C° 0 mm 1 mps 671 mmHg 58%
    02:00 +8°C° 0 mm 1 mps 671 mmHg 60%
    03:00 +7°C° 0 mm 1 mps 671 mmHg 62%
    04:00 +7°C° 0 mm 1 mps 671 mmHg 65%
    05:00 +7°C° 0 mm 1 mps 671 mmHg 67%
    06:00 +6°C° 0 mm 2 mps 671 mmHg 65%
    07:00 +7°C° 0 mm 2 mps 672 mmHg 63%
    08:00 +8°C° 0 mm 2 mps 672 mmHg 61%
    09:00 +9°C° 0 mm 2 mps 672 mmHg 55%
    10:00 +10°C° 0 mm 2 mps 672 mmHg 50%
    11:00 +11°C° 0 mm 3 mps 673 mmHg 44%
    12:00 +12°C° 0 mm 3 mps 672 mmHg 41%
    13:00 +12°C° 0 mm 3 mps 672 mmHg 39%
    14:00 +13°C° 0 mm 3 mps 671 mmHg 36%
    15:00 +13°C° 0 mm 3 mps 671 mmHg 37%
    16:00 +13°C° 0 mm 3 mps 671 mmHg 37%
    17:00 +12°C° 0 mm 3 mps 671 mmHg 38%
    18:00 +11°C° 0 mm 3 mps 671 mmHg 42%
    19:00 +10°C° 0 mm 3 mps 670 mmHg 46%
    20:00 +10°C° 0 mm 3 mps 670 mmHg 50%
    21:00 +8°C° 0 mm 4 mps 670 mmHg 53%
    22:00 +7°C° 0 mm 4 mps 670 mmHg 57%
    23:00 +7°C° 0 mm 4 mps 670 mmHg 61%

    Day after tomorrow, 25 February, Sunday

    Time Temperature Precipitation Wind Pressure Humidity
    00:00 +7°C° 0 mm 4 mps 670 mmHg 64%
    01:00 +6°C° 0 mm 4 mps 669 mmHg 67%
    02:00 +6°C° 0 mm 4 mps 669 mmHg 69%
    03:00 +6°C° 0.3 mm 5 mps 669 mmHg 68%
    04:00 +6°C° 0.3 mm 5 mps 669 mmHg 67%
    05:00 +6°C° 0.3 mm 5 mps 669 mmHg 66%
    06:00 +6°C° 0.5 mm 5 mps 669 mmHg 68%
    07:00 +6°C° 0.5 mm 5 mps 669 mmHg 70%
    08:00 +6°C° 0.5 mm 5 mps 669 mmHg 71%
    09:00 +7°C° 0.4 mm 5 mps 669 mmHg 66%
    10:00 +8°C° 0.4 mm 5 mps 669 mmHg 61%
    11:00 +9°C° 0.4 mm 6 mps 669 mmHg 55%
    12:00 +9°C° 0.2 mm 6 mps 669 mmHg 51%
    13:00 +10°C° 0.2 mm 6 mps 669 mmHg 47%
    14:00 +10°C° 0.2 mm 6 mps 668 mmHg 43%
    15:00 +10°C° 0.3 mm 5 mps 668 mmHg 47%
    16:00 +9°C° 0.3 mm 5 mps 668 mmHg 51%
    17:00 +8°C° 0.3 mm 5 mps 668 mmHg 54%
    18:00 +7°C° 0.3 mm 5 mps 669 mmHg 60%
    19:00 +6°C° 0.3 mm 4 mps 669 mmHg 67%
    20:00 +5°C° 0.3 mm 4 mps 670 mmHg 73%
    21:00 +5°C° 0.1 mm 3 mps 670 mmHg 75%
    22:00 +5°C° 0.1 mm 2 mps 670 mmHg 78%
    23:00 +5°C° 0.1 mm 2 mps 671 mmHg 80%

    26 February, Monday

    Time Temperature Precipitation Wind Pressure Humidity
    00:00 +6°C° 0 mm 1 mps 671 mmHg 81%
    01:00 +5°C° 0 mm 1 mps 671 mmHg 81%
    02:00 +5°C° 0 mm 1 mps 671 mmHg 82%
    03:00 +5°C° 0 mm 1 mps 671 mmHg 83%
    04:00 +4°C° 0 mm 1 mps 671 mmHg 84%
    05:00 +4°C° 0 mm 1 mps 671 mmHg 84%
    06:00 +4°C° 0 mm 1 mps 671 mmHg 82%
    07:00 +5°C° 0 mm 1 mps 672 mmHg 79%
    08:00 +4°C° 0 mm 2 mps 672 mmHg 76%
    09:00 +6°C° 0 mm 2 mps 672 mmHg 70%
    10:00 +7°C° 0 mm 2 mps 672 mmHg 64%
    11:00 +8°C° 0 mm 2 mps 672 mmHg 58%
    12:00 +9°C° 0 mm 2 mps 671 mmHg 54%
    13:00 +10°C° 0 mm 2 mps 670 mmHg 49%
    14:00 +10°C° 0 mm 2 mps 670 mmHg 45%
    15:00 +10°C° 0 mm 2 mps 669 mmHg 44%
    16:00 +12°C° 0 mm 2 mps 669 mmHg 43%
    17:00 +12°C° 0 mm 2 mps 669 mmHg 41%
    18:00 +10°C° 0 mm 3 mps 669 mmHg 46%
    19:00 +9°C° 0 mm 3 mps 669 mmHg 51%
    20:00 +8°C° 0 mm 3 mps 669 mmHg 55%
    21:00 +8°C° 0 mm 3 mps 669 mmHg 59%
    22:00 +6°C° 0 mm 4 mps 669 mmHg 64%
    23:00 +6°C° 0 mm 4 mps 669 mmHg 68%

    27 February, Tuesday

    Time Temperature Precipitation Wind Pressure Humidity
    00:00 +6°C° 0 mm 4 mps 668 mmHg 68%
    01:00 +6°C° 0 mm 4 mps 668 mmHg 68%
    02:00 +5°C° 0 mm 5 mps 667 mmHg 67%
    03:00 +5°C° 0.3 mm 4 mps 667 mmHg 69%
    04:00 +5°C° 0.3 mm 4 mps 667 mmHg 71%
    05:00 +5°C° 0.3 mm 4 mps 667 mmHg 72%
    06:00 +6°C° 0.9 mm 4 mps 668 mmHg 74%
    07:00 +6°C° 0.9 mm 4 mps 668 mmHg 76%
    08:00 +6°C° 0.9 mm 4 mps 669 mmHg 78%
    09:00 +7°C° 0.3 mm 4 mps 669 mmHg 71%
    10:00 +8°C° 0.3 mm 5 mps 670 mmHg 64%
    11:00 +9°C° 0.3 mm 5 mps 670 mmHg 57%
    12:00 +10°C° 0.1 mm 4 mps 670 mmHg 52%
    13:00 +11°C° 0.1 mm 4 mps 670 mmHg 47%
    14:00 +12°C° 0.1 mm 4 mps 670 mmHg 43%
    15:00 +11°C° 0 mm 3 mps 671 mmHg 42%
    16:00 +11°C° 0 mm 3 mps 671 mmHg 41%
    17:00 +12°C° 0 mm 2 mps 671 mmHg 40%
    18:00 +10°C° 0 mm 2 mps 672 mmHg 43%
    19:00 +9°C° 0 mm 2 mps 672 mmHg 46%
    20:00 +8°C° 0 mm 2 mps 673 mmHg 48%
    21:00 +7°C° 0 mm 2 mps 673 mmHg 49%
    22:00 +7°C° 0 mm 2 mps 673 mmHg 49%
    23:00 +6°C° 0 mm 2 mps 674 mmHg 49%

    28 February, Wednesday

    Time Temperature Precipitation Wind Pressure Humidity
    00:00 +6°C° 0 mm 2 mps 674 mmHg 50%
    01:00 +6°C° 0 mm 2 mps 674 mmHg 51%
    02:00 +5°C° 0 mm 2 mps 674 mmHg 53%
    03:00 +5°C° 0 mm 2 mps 674 mmHg 54%
    04:00 +5°C° 0 mm 2 mps 674 mmHg 56%
    05:00 +5°C° 0 mm 2 mps 674 mmHg 58%
    06:00 +6°C° 0 mm 2 mps 675 mmHg 57%
    07:00 +6°C° 0 mm 2 mps 675 mmHg 56%
    08:00 +7°C° 0 mm 3 mps 675 mmHg 55%
    09:00 +8°C° 0 mm 3 mps 675 mmHg 51%
    10:00 +10°C° 0 mm 3 mps 675 mmHg 48%
    11:00 +11°C° 0 mm 3 mps 675 mmHg 44%
    12:00 +12°C° 0 mm 3 mps 675 mmHg 43%
    13:00 +12°C° 0 mm 4 mps 675 mmHg 42%
    14:00 +13°C° 0 mm 4 mps 675 mmHg 41%
    15:00 +12°C° 0 mm 4 mps 675 mmHg 43%
    16:00 +12°C° 0 mm 4 mps 675 mmHg 46%
    17:00 +12°C° 0 mm 4 mps 674 mmHg 48%
    18:00 +11°C° 0 mm 3 mps 675 mmHg 53%
    19:00 +10°C° 0 mm 3 mps 675 mmHg 59%
    20:00 +8°C° 0 mm 3 mps 675 mmHg 64%
    21:00 +8°C° 0 mm 3 mps 675 mmHg 67%
    22:00 +7°C° 0 mm 2 mps 675 mmHg 69%
    23:00 +7°C° 0 mm 2 mps 675 mmHg 72%
    Show more